This demonstration page uses our WeatherBlox Daily Observations layout. Learn more.

Left ArrowRight Arrow

39.92423, -83.80882

Hourly Observations for July 12, 2022

Temp ( °F °C ) Dew Point ( °F °C ) Humidity (%) Winds ( mph kmh ) Pressure ( in mb ) Visibility ( mi km ) Precip ( " mm )
12:44 am 00:44 Mostly Clear 73 23 73 23 100 100 SW 7 11 29.81 1010 10 16 0.00 0.00
12:56 am 00:56 Clear 73 22.8 73 22.8 100 100 SW 8 13 29.83 1010 10 16 0.00 0.00
1:56 am 01:56 Mostly Clear 73 22.8 73 22.8 100 100 SW 7 11 29.82 1010 10 16 0.00 0.00
2:56 am 02:56 Mostly Cloudy 74 23.3 74 23.3 100 100 SSW 7 11 29.80 1009 10 16 0.00 0.00
3:56 am 03:56 Cloudy 77 25 69 20.6 77 77 WSW 9 15 29.80 1009 10 16 0.00 0.00
4:03 am 04:03 Cloudy 77 25 70 21 79 79 WSW 8 13 29.78 1009 10 16 0.00 0.00
4:43 am 04:43 Cloudy 75 24 70 21 83 83 WSW 10 17 29.79 1009 10 16 0.00 0.00
4:56 am 04:56 Mostly Cloudy 76 24.4 70 21.1 82 82 WSW 13 20 29.80 1009 10 16 0.00 0.00
5:56 am 05:56 Mostly Cloudy 74 23.3 72 22.2 94 94 WSW 8 13 29.81 1009 10 16 0.00 0.00
6:56 am 06:56 Cloudy 75 23.9 73 22.8 94 94 W 7 11 29.81 1010 10 16 0.03 0.76
7:56 am 07:56 Cloudy 75 23.9 75 23.9 100 100 W 8 13 29.81 1010 10 16 0.01 0.25
8:56 am 08:56 Cloudy 76 24.4 75 23.9 97 97 VRB 3 6 29.82 1010 10 16 0.00 0.00
9:56 am 09:56 Partly Cloudy 79 26.1 74 23.3 85 85 W 8 13 29.82 1010 10 16 0.00 0.00
10:56 am 10:56 Sunny 81 27.2 69 20.6 67 67 W 14 22 29.83 1010 10 16 0.00 0.00
11:56 am 11:56 Mostly Sunny 83 28.3 67 19.4 59 59 WNW 14 22 29.83 1010 10 16 0.00 0.00
12:56 pm 12:56 Sunny 83 28.3 65 18.3 55 55 W 13 20 29.84 1011 10 16 0.00 0.00
1:56 pm 13:56 Sunny 84 28.9 62 16.7 48 48 WNW 14 22 29.84 1011 10 16 0.00 0.00
2:56 pm 14:56 Sunny 85 29.4 62 16.7 46 46 WNW 14 22 29.83 1010 10 16 0.00 0.00
3:56 pm 15:56 Sunny 85 29.4 61 16.1 45 45 WNW 15 24 29.83 1010 10 16 0.02 0.51
4:56 pm 16:56 Sunny 84 28.9 62 16.7 48 48 NW 18 30 29.83 1010 10 16 0.00 0.00
5:56 pm 17:56 Sunny 82 27.8 64 17.8 55 55 WNW 16 26 29.83 1010 10 16 0.00 0.00
6:56 pm 18:56 Mostly Cloudy 80 26.7 63 17.2 56 56 WNW 13 20 29.85 1011 10 16 0.00 0.00
7:56 pm 19:56 Sunny 79 26.1 63 17.2 58 58 NW 7 11 29.87 1011 10 16 0.00 0.00
8:56 pm 20:56 Sunny 75 23.9 62 16.7 64 64 NW 6 9 29.88 1012 10 16 0.00 0.00
9:56 pm 21:56 Clear 69 20.6 66 18.9 90 90 WNW 6 9 29.91 1013 10 16 0.00 0.00
10:56 pm 22:56 Clear 67 19.4 67 19.4 100 100 W 6 9 29.93 1014 10 16 0.00 0.00
11:56 pm 23:56 Clear 67 19.4 65 18.3 93 93 WNW 7 11 29.94 1014 10 16 0.00 0.00

Powered by AerisWeather